sat.trackr.live / text

‹ back to catalog

CENTISPACE-2 S1

NORAD 68350 · 2026-060A

PAYLOAD ACTIVE UNKNOWN

§ Identity

Operator
Country
PRC
Launch date
2026-03-22
Launch site
YSLA
Launch vehicle
Mass (kg)
RCS (m²)

External: N2YO · Heavens-Above · Gunter

§ Orbital elements

Epoch: 2026-09-19T01:45:04.359168Z

Period
101.41 min
Inclination
54.9839°
Eccentricity
0.0005908
Mean motion
14.20025378 rev/d
Perigee alt
821.0 km
Apogee alt
829.5 km
Semi-major
7,203.4 km
B*
-1.0720e-4
RAAN
31.9647°
Arg perigee
271.1674°
Mean anomaly
88.8624°
Rev number
2,632

§ Raw data

CENTISPACE-2 S11 68350U 26060A   26262.07296712 -.00000385  00000+0 -10720-3 0  99982 68350  54.9839  31.9647 0005908 271.1674  88.8624 14.20025378 26323

JSON: /api/v1/satellites/68350 · /tle

For live sub-satellite position, see the globe view (requires WebGL).

§ Visibility from observer

Set your observer location to see the next 7 days of passes ≥ 10°. The values pass through the URL so the page stays shareable.

No JS? Fill the form by hand. The geolocation button needs JavaScript.